Weather reports worldwide

Advertisment
New Iberia, la, United States of America (2072047): temperature & dewpoint: 09.10.2019 13:00:00 - 15.10.2019 13:00:00 (CDT)New Iberia, la, United States of America (2072047): wind speed: 09.10.2019 13:00:00 - 15.10.2019 13:00:00 (CDT)New Iberia, la, United States of America (2072047): wind direction: 09.10.2019 13:00:00 - 15.10.2019 13:00:00 (CDT)New Iberia, la, United States of America (2072047): reduced air pressure: 09.10.2019 13:00:00 - 15.10.2019 13:00:00 (CDT)New Iberia, la, United States of America (2072047): visibility: 09.10.2019 13:00:00 - 15.10.2019 13:00:00 (CDT)New Iberia, la, United States of America (2072047): precipitation: 09.10.2019 13:00:00 - 15.10.2019 13:00:00 (CDT)
Date & Time tt [°C] td [°C] ff [km/h] ff [kn] dd ppp [hPa] vv [km] rr [mm]
15.10.2019 13:00:00 - - - - - - - -
15.10.2019 12:00:00 29,4 25,0 15 8 SSW 1014,8 16 -
15.10.2019 11:00:00 28,3 24,4 13 7 SW 1015,1 16 -
15.10.2019 10:00:00 27,8 25,6 15 8 SSW 1015,3 16 -
15.10.2019 09:00:00 25,0 25,0 9 5 S 1014,9 16 -
15.10.2019 08:00:00 22,2 22,2 0 0 N 1014,7 4,8 -
15.10.2019 07:00:00 21,7 21,7 0 0 N 1014,9 3,2 -
15.10.2019 06:00:00 22,2 22,2 0 0 N 1015,3 6 -
15.10.2019 05:00:00 22,2 22,2 9 5 SSE 1014,8 8 -
15.10.2019 04:00:00 21,7 21,7 8 4 SE 1015,0 10 -
15.10.2019 03:00:00 21,7 21,7 8 4 SE 1015,5 10 0,0
15.10.2019 02:00:00 21,7 21,7 9 5 SE 1015,9 11 -
15.10.2019 01:00:00 21,7 21,7 13 7 SE 1015,9 11 -
15.10.2019 00:00:00 21,7 21,7 9 5 ESE 1016,7 13 -
14.10.2019 23:00:00 21,7 21,7 9 5 E 1017,1 13 -
14.10.2019 22:00:00 22,2 22,2 9 5 E 1017,0 10 -
14.10.2019 21:00:00 22,2 22,2 8 4 E 1016,8 16 -
14.10.2019 20:00:00 22,2 22,2 9 5 ENE 1016,7 16 0,0
14.10.2019 19:00:00 22,2 22,2 15 8 ENE 1016,3 16 1,8
14.10.2019 18:00:00 22,2 22,2 11 6 NE 1016,6 8 1,0
14.10.2019 17:00:00 22,8 22,8 13 7 NNE 1016,0 10 2,5
14.10.2019 16:00:00 23,3 23,3 9 5 - 1015,8 8 2,3
14.10.2019 15:00:00 25,6 22,8 16 9 ENE 1015,3 16 0,0
14.10.2019 14:00:00 25,6 23,3 15 8 ENE 1016,2 15 -
14.10.2019 13:00:00 25,0 23,9 13 7 ENE 1017,0 16 -
14.10.2019 12:00:00 24,4 23,9 13 7 E 1017,7 16 0,3
14.10.2019 11:00:00 23,3 22,2 13 7 NE 1018,1 16 0,0
14.10.2019 10:00:00 22,2 21,7 13 7 NE 1018,3 16 0,0
14.10.2019 09:00:00 21,1 21,1 9 5 ENE 1017,6 16 0,0
14.10.2019 08:00:00 21,1 20,6 9 5 ENE 1017,0 16 -
14.10.2019 07:00:00 21,1 20,0 9 5 ENE 1016,7 16 -
14.10.2019 06:00:00 20,6 20,0 8 4 ENE 1016,2 16 -
14.10.2019 05:00:00 21,1 20,0 8 4 NE 1016,2 16 -
14.10.2019 04:00:00 20,6 19,4 8 4 E 1015,9 16 -
14.10.2019 03:00:00 20,6 18,9 8 4 E 1016,4 16 -
14.10.2019 02:00:00 20,6 18,3 11 6 NNE 1016,7 16 -
14.10.2019 01:00:00 20,6 17,8 9 5 E 1016,6 16 -
14.10.2019 00:00:00 20,6 16,7 11 6 ENE 1017,0 16 -
13.10.2019 23:00:00 21,1 16,7 11 6 E 1016,9 16 -
13.10.2019 22:00:00 21,7 16,7 9 5 NE 1017,0 16 -
13.10.2019 21:00:00 22,2 16,1 13 7 ENE 1016,7 16 -
13.10.2019 20:00:00 23,3 16,7 16 9 NE 1016,3 16 -
13.10.2019 19:00:00 25,0 19,4 11 6 NE 1016,0 16 -
13.10.2019 18:00:00 26,7 18,3 9 5 ENE 1015,6 16 -
13.10.2019 17:00:00 27,8 18,3 13 7 NE 1015,5 16 -
13.10.2019 16:00:00 28,3 17,8 8 4 - 1015,4 16 -
13.10.2019 15:00:00 28,3 18,9 13 7 N 1015,5 16 -
13.10.2019 14:00:00 27,2 18,3 11 6 N 1016,2 16 -
13.10.2019 13:00:00 26,7 18,3 9 5 N 1016,7 16 -
13.10.2019 12:00:00 25,0 17,8 8 4 N 1017,6 16 -
13.10.2019 11:00:00 23,3 17,2 8 4 NNE 1017,9 16 -
13.10.2019 10:00:00 21,1 15,6 15 8 NE 1017,7 16 -
13.10.2019 09:00:00 17,8 13,3 11 6 NE 1018,0 16 -
13.10.2019 08:00:00 16,7 13,9 11 6 N 1017,9 16 -
13.10.2019 07:00:00 16,1 13,9 9 5 N 1017,6 16 -
13.10.2019 06:00:00 16,7 13,3 11 6 NNE 1017,3 16 -
13.10.2019 05:00:00 16,1 14,4 9 5 NE 1017,2 10 -
13.10.2019 04:00:00 16,7 12,8 5 3 NNE 1016,5 16 -
13.10.2019 03:00:00 17,2 12,8 9 5 NNE 1016,7 16 -
13.10.2019 02:00:00 17,2 15,6 5 3 NE 1016,7 16 -
13.10.2019 01:00:00 16,7 15,6 0 0 N 1017,0 16 -
13.10.2019 00:00:00 16,7 13,9 9 5 NE 1016,7 16 -
12.10.2019 23:00:00 16,7 13,9 8 4 NE 1017,1 16 -
12.10.2019 22:00:00 17,8 13,9 11 6 NE 1017,3 16 -
12.10.2019 21:00:00 17,8 13,9 9 5 ENE 1017,6 16 -
12.10.2019 20:00:00 18,3 13,9 9 5 ENE 1017,5 16 -
12.10.2019 19:00:00 19,4 13,9 11 6 E 1017,7 16 -
12.10.2019 18:00:00 21,1 13,9 13 7 ENE 1017,7 16 -
12.10.2019 17:00:00 22,2 13,3 16 9 ENE 1017,4 16 -
12.10.2019 16:00:00 21,7 13,3 16 9 NE 1018,0 16 -
12.10.2019 15:00:00 21,7 12,8 18 10 NE 1018,0 16 -
12.10.2019 14:00:00 21,1 11,7 21 11 NNE 1018,8 16 -
12.10.2019 13:00:00 20,6 11,1 22 12 N 1019,5 16 -
12.10.2019 12:00:00 18,9 10,6 28 15 NNE 1019,9 16 -
12.10.2019 11:00:00 17,2 9,4 24 13 N 1020,5 16 -
12.10.2019 10:00:00 15,6 8,9 22 12 N 1020,3 16 -
12.10.2019 09:00:00 15,0 9,4 29 16 NNE 1019,8 16 -
12.10.2019 08:00:00 14,4 9,4 18 10 N 1019,7 16 -
12.10.2019 07:00:00 13,9 9,4 22 12 N 1019,2 16 -
12.10.2019 06:00:00 13,9 9,4 22 12 N 1018,8 16 -
12.10.2019 05:00:00 13,9 10,0 26 14 N 1018,2 16 -
12.10.2019 04:00:00 14,4 11,7 24 13 N 1018,1 16 -
12.10.2019 03:00:00 15,0 12,8 24 13 N 1018,4 16 -
12.10.2019 02:00:00 16,7 15,0 22 12 N 1018,5 16 -
12.10.2019 01:00:00 17,2 16,1 26 14 N 1018,5 16 -
12.10.2019 00:00:00 18,3 16,7 22 12 N 1018,3 16 -
11.10.2019 23:00:00 20,0 18,3 16 9 N 1018,3 16 -
11.10.2019 22:00:00 20,0 18,3 13 7 N 1017,9 16 -
11.10.2019 21:00:00 20,6 17,8 21 11 N 1017,6 16 -
11.10.2019 20:00:00 22,8 20,6 16 9 NNW 1016,9 16 -
11.10.2019 19:00:00 23,3 21,7 13 7 N 1016,5 16 -
11.10.2019 18:00:00 24,4 22,2 18 10 N 1015,5 16 -
11.10.2019 17:00:00 26,7 23,9 16 9 N 1014,4 16 2,5
11.10.2019 16:00:00 25,6 23,3 11 6 - 1014,2 8 1,0
11.10.2019 15:00:00 27,2 23,3 9 5 N 1014,5 16 -
11.10.2019 14:00:00 27,8 23,9 13 7 WSW 1014,7 16 -
11.10.2019 13:00:00 28,9 25,0 0 0 N 1015,0 16 -
11.10.2019 12:00:00 28,3 25,0 8 4 SSE 1015,7 16 -
11.10.2019 11:00:00 26,7 23,9 15 8 SE 1015,9 16 -
11.10.2019 10:00:00 26,7 24,4 15 8 SE 1015,8 16 -
11.10.2019 09:00:00 24,4 24,4 13 7 E 1015,3 16 0,3
11.10.2019 08:00:00 23,9 23,9 13 7 E 1014,7 13 4,6
11.10.2019 07:00:00 23,9 23,9 11 6 NE 1014,4 16 0,0
11.10.2019 06:00:00 23,9 23,9 11 6 ENE 1013,7 16 0,0
11.10.2019 05:00:00 23,9 23,9 9 5 E 1013,5 16 0,0
11.10.2019 04:00:00 24,4 24,4 22 12 SE 1013,6 16 0,3
11.10.2019 03:00:00 24,4 24,4 9 5 - 1013,8 10 -
11.10.2019 02:00:00 24,4 24,4 9 5 ENE 1013,7 16 -
11.10.2019 01:00:00 24,4 24,4 9 5 E 1013,4 16 -
11.10.2019 00:00:00 25,0 25,0 13 7 E 1013,5 16 -
10.10.2019 23:00:00 25,0 24,4 9 5 E 1013,6 16 -
10.10.2019 22:00:00 25,6 25,0 15 8 E 1013,6 16 -
10.10.2019 21:00:00 25,6 25,0 9 5 E 1013,1 16 -
10.10.2019 20:00:00 25,6 24,4 11 6 SE 1012,6 16 -
10.10.2019 19:00:00 26,7 23,9 11 6 SSE 1012,3 16 -
10.10.2019 18:00:00 29,4 23,3 18 10 S 1012,4 16 -
10.10.2019 17:00:00 31,1 22,8 24 13 S 1012,5 16 -
10.10.2019 16:00:00 31,7 21,7 22 12 S 1012,4 16 -
10.10.2019 15:00:00 32,2 22,2 24 13 S 1012,6 16 -
10.10.2019 14:00:00 32,8 23,3 18 10 S 1013,4 16 -
10.10.2019 13:00:00 31,1 23,9 18 10 SE 1014,4 16 -
10.10.2019 12:00:00 30,6 23,3 13 7 ESE 1015,3 16 -
10.10.2019 11:00:00 29,4 23,9 16 9 E 1015,5 16 -
10.10.2019 10:00:00 27,8 24,4 13 7 E 1015,7 16 -
10.10.2019 09:00:00 25,0 23,9 9 5 E 1015,6 16 -
10.10.2019 08:00:00 23,3 22,8 8 4 NE 1015,0 16 -
10.10.2019 07:00:00 22,2 22,2 5 3 N 1014,7 16 -
10.10.2019 06:00:00 21,7 21,7 8 4 ENE 1014,4 16 -
10.10.2019 05:00:00 20,6 20,6 0 0 N 1014,3 11 -
10.10.2019 04:00:00 21,1 21,1 0 0 N 1014,3 16 -
10.10.2019 03:00:00 21,7 21,1 8 4 E 1014,4 16 -
10.10.2019 02:00:00 21,1 21,1 0 0 N 1014,6 16 -
10.10.2019 01:00:00 22,2 21,7 0 0 N 1014,7 16 -
10.10.2019 00:00:00 21,7 21,1 5 3 ESE 1014,9 16 -
09.10.2019 23:00:00 21,7 21,1 5 3 ESE 1015,1 16 -
09.10.2019 22:00:00 22,2 21,1 5 3 SE 1014,9 16 -
09.10.2019 21:00:00 23,3 21,7 0 0 N 1014,5 16 -
09.10.2019 20:00:00 23,9 21,1 0 0 N 1013,8 16 -
09.10.2019 19:00:00 26,1 21,1 9 5 SSW 1013,4 16 -
09.10.2019 18:00:00 28,3 20,6 15 8 SW 1013,3 16 -
09.10.2019 17:00:00 30,0 18,9 15 8 SSW 1013,3 16 -
09.10.2019 16:00:00 30,6 19,4 15 8 SSW 1013,5 16 -
09.10.2019 15:00:00 31,1 19,4 16 9 SSW 1013,8 16 -
09.10.2019 14:00:00 30,6 20,0 11 6 SSW 1014,5 16 -
09.10.2019 13:00:00 29,4 20,0 13 7 S 1015,4 16 -

tt = temperature
td = dewpoint
ff = wind speed
dd = wind direction
ppp = reduced air pressure
vv = visibility
rr = precipitation

Next stations